STARLINK-5484, 55628

Orbit data source: Space-Track

STARLINK-5484, 55628 is a payload satellite owned by SpaceX/Seattle (US) in LEO that was launched on Fri, 17 Feb 2023 UTC via an FALCON 9 launch vehicle from the Air Force Western Test Range (AFWTR). Payload-class satellites include a variety of spacecraft equipped with specific instruments for various scientific and technological missions. These include communications satellites like Starlink; space stations such as the ISS; scientific satellites like the Hubble; Earth observation satellites from companies like Planet Labs, Umbra, and HawkEye 360; GPS; miniature CubeSats for education and research; and military/defense satellites.

Loading next visibility...
Identifier
55628, 2023-021A
Orbit
LEO
Country
Flag of USUS
Related business
Manufacturer
SpaceX/Seattle
Mission
Operational Commercial Communications
Bus & Motor
STARLINK, Unknown motor
Mass
305 kg wet, ~290 kg dry
Launch date (UTC)
2023-02-17 (3 years ago)
Launch vehicle
FALCON 9
Launch site
Air Force Western Test Range (AFWTR)
Object type
Payload
Rocket body
Debris
Shape & HBR
Box + 1 Pan, 10.1 m
Radar Cross Section
13.562 m², Large (>1 m²)

Expand to show TLE details & history
Last TLE update: 2 days ago

TLE from 2 days ago
0 STARLINK-5484
1 55628U 23021A   26171.41687586  .00000026  00000-0  99679-5 0  9999
2 55628  69.9998 305.5285 0002931 268.5139  91.5685 14.98330983183683
Epoch: 2026-06-20T10:00Z
TLE epoch observation values (Epoch: 2026-06-20T10:00:18.074Z)
Latitude
0.00005°
Longitude
-113.17859°
Altitude
574.533 km
Speed
7.574 km/s
True Right ascension
20h 22m 06s
True Declination
0° 00' 00"
Sunlit
Object was in full shadow at epoch
Visualization orbit readout
Latitude
Unknown
Longitude
Unknown
Altitude
Unknown
Speed
Unknown
Apparent Right ascension
Unknown
Apparent Declination
Unknown
Sunlit
N/A
Visualization observer readout
Local Sidereal Time
21:41:40
Azimuth
Unknown
Elevation
Unknown
Doppler factor
Unknown
Orbital elements
Apogee altitude
572.038 km
Perigee altitude
567.965 km
Semi-major axis
6,948.138 km
Eccentricity
0.00029
Inclination
69.9998°
RAAN
305.5285°
Arg. of periapsis
268.5139°
True anomaly
91.60207°
Mean anomaly
91.5685°
Eccentric anomaly
91.58529°
Mean motion
3.74749 °/min
Orbital period
96.06 mins
BSTAR
0.0000099679
Loading maneuver chart data...
Computing Atmospheric mass density...

Documentation

Showing up to 5 results
|